DW5977 Weather Reports


Display with metric or nautical units.
time (UTC)temp
F
wind
direction
speed
MPH
gust
MPH
rain 1hr
in
rain 24hr
in
rain mn
in
humidity
%
barometer
mb
20260904213503 73 236 1.0 3.0 0.00 0.62 0.01 73 1012.8
20260904213003 73 236 0.0 2.0 0.00 0.62 0.01 73 1012.8
20260904212503 73 236 1.0 4.0 0.00 0.62 0.01 73 1012.8
20260904212003 73 236 1.0 4.0 0.00 0.62 0.01 72 1013.0
20260904211503 73 236 1.0 4.0 0.00 0.62 0.01 72 1013.0
20260904211003 73 236 2.0 4.0 0.00 0.62 0.01 71 1013.0
20260904210503 73 236 1.0 4.0 0.00 0.62 0.01 71 1013.3
20260904210003 73 236 1.0 4.0 0.00 0.62 0.01 71 1013.3
20260904205524 74 237 2.0 8.0 0.00 0.62 0.01 71 1013.4
20260904205003 74 237 2.0 8.0 0.00 0.62 0.01 70 1013.3
20260904204503 74 238 2.0 5.0 0.00 0.62 0.01 69 1013.4
20260904204003 74 238 2.0 8.0 0.00 0.62 0.01 69 1013.5
20260904203503 74 239 2.0 8.0 0.00 0.62 0.01 68 1013.5
20260904203003 74 240 2.0 7.0 0.00 0.62 0.01 68 1013.5
20260904202503 74 240 3.0 7.0 0.00 0.62 0.01 67 1013.6
20260904202003 74 240 3.0 8.0 0.00 0.62 0.01 67 1013.5
20260904201503 74 240 3.0 8.0 0.00 0.62 0.01 66 1013.6
20260904201003 74 239 3.0 7.0 0.00 0.62 0.01 64 1013.7
20260904200524 75 238 3.0 7.0 0.00 0.62 0.01 63 1013.7
20260904200003 75 239 3.0 8.0 0.00 0.62 0.01 64 1013.7
20260904195503 75 240 2.0 7.0 0.00 0.62 0.01 64 1013.7
20260904195003 75 240 2.0 7.0 0.00 0.62 0.01 63 1013.8
20260904194524 75 240 2.0 7.0 0.00 0.62 0.01 62 1014.0
20260904194003 75 240 3.0 8.0 0.00 0.62 0.01 63 1013.9
20260904193503 75 240 3.0 8.0 0.00 0.62 0.01 62 1013.9
20260904193003 75 239 3.0 7.0 0.00 0.62 0.01 61 1014.0
20260904192503 75 240 3.0 10.0 0.00 0.62 0.01 62 1014.0
20260904192003 76 245 3.0 10.0 0.00 0.62 0.01 62 1014.3
20260904191503 76 251 3.0 8.0 0.00 0.62 0.01 62 1014.3
20260904191024 76 250 3.0 8.0 0.00 0.62 0.01 60 1014.3
20260904190503 76 249 3.0 8.0 0.00 0.62 0.01 61 1014.3
20260904190003 75 249 2.0 7.0 0.00 0.62 0.01 61 1014.4
20260904185503 75 249 3.0 7.0 0.00 0.62 0.01 62 1014.6
20260904185024 75 249 3.0 8.0 0.00 0.62 0.01 61 1014.7
20260904184503 75 248 3.0 8.0 0.00 0.62 0.01 62 1014.7
20260904184003 75 247 2.0 7.0 0.00 0.62 0.01 61 1014.7
20260904183503 76 247 2.0 7.0 0.00 0.62 0.01 61 1014.7
20260904183003 76 246 2.0 7.0 0.00 0.62 0.01 60 1014.9
20260904182503 76 250 2.0 8.0 0.00 0.62 0.01 61 1014.8
20260904182003 76 255 3.0 8.0 0.00 0.62 0.01 60 1014.7
20260904181503 76 256 3.0 8.0 0.00 0.62 0.01 59 1014.7
20260904181024 76 254 3.0 9.0 0.00 0.62 0.01 59 1014.7
20260904180503 76 254 4.0 9.0 0.00 0.62 0.01 56 1014.8
20260904180003 77 256 3.0 9.0 0.00 0.62 0.01 56 1014.8
20260904175503 77 260 2.0 7.0 0.00 0.62 0.01 57 1014.8
20260904175024 77 261 3.0 7.0 0.00 0.62 0.01 58 1014.8
20260904174503 76 261 3.0 8.0 0.00 0.62 0.01 58 1014.9
20260904174003 76 261 3.0 8.0 0.00 0.62 0.01 58 1014.9
20260904173503 76 258 4.0 11.0 0.00 0.62 0.01 57 1014.8
20260904173003 76 254 4.0 11.0 0.00 0.62 0.01 55 1014.9
20260904172524 77 252 3.0 7.0 0.00 0.62 0.01 58 1015.3
20260904172024 78 253 3.0 7.0 0.00 0.62 0.01 56 1015.3
20260904171503 77 254 3.0 8.0 0.00 0.62 0.01 57 1015.2
20260904171024 76 254 3.0 9.0 0.00 0.62 0.01 56 1015.2
20260904170503 76 254 3.0 9.0 0.00 0.62 0.01 54 1015.3
20260904170003 76 255 3.0 9.0 0.00 0.62 0.01 53 1015.5
20260904165503 77 255 3.0 9.0 0.00 0.62 0.01 53 1015.5
20260904165003 77 255 2.0 9.0 0.00 0.62 0.01 53 1015.5
20260904164503 76 255 2.0 9.0 0.00 0.62 0.01 56 1015.5
20260904164003 76 256 3.0 9.0 0.00 0.62 0.01 63 1015.6
20260904163503 76 257 3.0 9.0 0.00 0.62 0.01 61 1015.6
20260904163003 77 260 2.0 8.0 0.00 0.62 0.01 60 1015.6
20260904162503 76 263 3.0 8.0 0.00 0.62 0.01 59 1015.7
20260904162003 76 262 3.0 8.0 0.00 0.62 0.01 62 1015.7
20260904161503 75 265 3.0 7.0 0.00 0.62 0.01 62 1015.7
20260904161024 75 276 2.0 7.0 0.00 0.62 0.01 62 1015.9
20260904160503 75 283 2.0 6.0 0.00 0.62 0.01 63 1015.9
20260904160003 75 283 2.0 4.0 0.00 0.62 0.01 63 1015.9
20260904155524 75 287 2.0 4.0 0.00 0.62 0.01 63 1015.7
20260904155003 75 299 1.0 4.0 0.00 0.62 0.01 62 1015.6
20260904154503 75 306 1.0 4.0 0.00 0.62 0.01 64 1015.5
20260904154003 74 306 1.0 4.0 0.00 0.62 0.01 65 1015.4
20260904153504 74 306 1.0 3.0 0.00 0.62 0.01 66 1015.4
20260904153003 74 306 1.0 3.0 0.00 0.62 0.01 66 1015.4
20260904152503 73 306 2.0 4.0 0.00 0.62 0.01 67 1015.4
20260904152003 73 306 2.0 4.0 0.00 0.62 0.01 65 1015.3
20260904151503 74 306 1.0 3.0 0.00 0.62 0.01 66 1015.4
20260904151024 74 306 1.0 3.0 0.00 0.62 0.01 65 1015.4
20260904150503 74 306 1.0 4.0 0.00 0.62 0.01 68 1015.4
20260904150003 72 306 1.0 5.0 0.00 0.62 0.01 71 1015.6
20260904145503 72 306 1.0 5.0 0.00 0.62 0.01 69 1015.6
20260904145003 72 306 1.0 4.0 0.00 0.62 0.01 71 1015.6
20260904144503 72 306 1.0 3.0 0.00 0.62 0.01 72 1015.6
20260904144003 72 306 1.0 2.0 0.00 0.62 0.01 72 1015.4
20260904143503 72 306 1.0 3.0 0.00 0.62 0.01 72 1015.4
20260904143003 72 306 1.0 3.0 0.00 0.62 0.01 70 1015.3
20260904142503 72 306 0.0 3.0 0.00 0.62 0.01 74 1015.4
20260904142004 72 306 1.0 3.0 0.00 0.62 0.01 76 1015.1
20260904141503 71 306 2.0 4.0 0.00 0.62 0.01 76 1015.0
20260904141003 71 305 1.0 4.0 0.00 0.62 0.01 75 1015.1
20260904140524 70 305 1.0 4.0 0.00 0.62 0.01 76 1015.1
20260904140003 70 305 2.0 4.0 0.00 0.62 0.01 77 1015.1
20260904135503 70 305 1.0 4.0 0.00 0.62 0.01 77 1015.1
20260904135003 70 305 1.0 4.0 0.00 0.62 0.01 77 1015.2
20260904134503 70 305 1.0 3.0 0.00 0.62 0.01 79 1015.4
20260904134003 70 305 1.0 3.0 0.00 0.62 0.01 77 1015.4
20260904133503 70 305 0.0 3.0 0.00 0.62 0.01 78 1015.3
20260904133003 70 0 0.0 3.0 0.00 0.62 0.01 79 1015.4
20260904132503 69 305 0.0 3.0 0.00 0.62 0.01 79 1015.3
20260904132024 69 305 1.0 3.0 0.00 0.62 0.01 79 1015.5
20260904131503 69 305 1.0 3.0 0.00 0.62 0.01 81 1015.5
20260904131024 69 305 1.0 3.0 0.00 0.62 0.01 81 1015.6
20260904130503 69 305 0.0 3.0 0.00 0.62 0.01 84 1015.7
20260904130003 68 305 1.0 3.0 0.00 0.62 0.01 84 1015.6
20260904125503 68 305 1.0 3.0 0.00 0.62 0.01 87 1015.6
20260904125003 68 305 0.0 3.0 0.00 0.62 0.01 90 1015.7
20260904124503 67 0 0.0 0.0 0.00 0.62 0.01 91 1015.7
20260904124003 67 305 0.0 1.0 0.00 0.62 0.01 93 1015.7
20260904123524 66 295 0.0 2.0 0.00 0.62 0.01 93 1015.6
20260904123003 66 294 0.0 2.0 0.00 0.62 0.01 92 1015.5
20260904122524 66 294 0.0 2.0 0.00 0.62 0.01 93 1015.5
20260904122003 66 0 0.0 0.0 0.00 0.62 0.01 93 1015.4
20260904121503 66 0 0.0 0.0 0.00 0.62 0.01 93 1015.4
20260904121003 67 0 0.0 0.0 0.00 0.62 0.01 93 1015.5
20260904120503 67 0 0.0 0.0 0.00 0.62 0.01 94 1015.5
20260904120003 66 0 0.0 0.0 0.00 0.62 0.01 94 1015.5
20260904115503 66 0 0.0 0.0 0.00 0.62 0.01 93 1015.5
20260904115003 66 0 0.0 0.0 0.00 0.62 0.01 93 1015.4
20260904114503 66 0 0.0 0.0 0.00 0.62 0.01 93 1015.3
20260904114003 66 0 0.0 0.0 0.00 0.62 0.01 93 1015.2
20260904113503 66 0 0.0 0.0 0.00 0.62 0.01 93 1015.2
20260904113003 66 0 0.0 0.0 0.00 0.62 0.01 93 1015.2
20260904112524 66 0 0.0 0.0 0.00 0.62 0.01 93 1015.0
20260904112003 66 0 0.0 0.0 0.00 0.62 0.01 93 1014.9
20260904111503 66 0 0.0 0.0 0.00 0.62 0.01 93 1014.9
20260904111003 66 0 0.0 0.0 0.00 0.62 0.01 93 1015.0
20260904110503 66 0 0.0 0.0 0.00 0.62 0.01 93 1014.9
20260904110003 66 0 0.0 0.0 0.00 0.62 0.01 93 1014.9
20260904105503 66 0 0.0 0.0 0.01 0.62 0.01 93 1015.0
20260904105003 66 0 0.0 0.0 0.01 0.62 0.01 93 1014.9
20260904104503 66 0 0.0 0.0 0.01 0.62 0.01 93 1014.8
20260904104003 66 0 0.0 0.0 0.01 0.62 0.01 93 1015.0
20260904103503 66 0 0.0 0.0 0.01 0.62 0.01 93 1014.9
20260904103024 66 0 0.0 0.0 0.01 0.62 0.01 93 1014.9
20260904102503 66 0 0.0 0.0 0.01 0.62 0.01 93 1015.0
20260904102003 66 0 0.0 0.0 0.01 0.62 0.01 93 1014.9
20260904101503 66 0 0.0 0.0 0.01 0.62 0.01 93 1014.9
20260904101003 66 0 0.0 0.0 0.01 0.62 0.01 93 1014.9
20260904100524 66 0 0.0 0.0 0.01 0.62 0.01 93 1015.0
20260904100003 66 0 0.0 0.0 0.01 0.62 0.01 93 1014.9
20260904095503 66 0 0.0 0.0 0.00 0.61 0.00 93 1014.8
20260904095003 66 0 0.0 0.0 0.00 0.61 0.00 93 1014.9
20260904094503 66 0 0.0 0.0 0.00 0.61 0.00 93 1014.6
20260904094003 66 0 0.0 0.0 0.00 0.61 0.00 93 1014.8
20260904093503 66 0 0.0 0.0 0.00 0.61 0.00 93 1014.6
20260904093003 66 0 0.0 0.0 0.00 0.61 0.00 93 1014.8
20260904092503 66 0 0.0 0.0 0.00 0.61 0.00 93 1014.7
20260904092003 66 0 0.0 0.0 0.00 0.61 0.00 93 1014.7
20260904091503 66 0 0.0 0.0 0.00 0.61 0.00 93 1014.7
20260904091003 67 0 0.0 0.0 0.00 0.61 0.00 93 1014.5
20260904090503 67 0 0.0 0.0 0.00 0.61 0.00 93 1014.6
20260904090024 67 0 0.0 0.0 0.00 0.61 0.00 93 1014.6
20260904085503 67 0 0.0 0.0 0.00 0.61 0.00 93 1014.6
20260904085003 67 0 0.0 0.0 0.00 0.61 0.00 93 1014.7
20260904084503 67 0 0.0 0.0 0.00 0.61 0.00 93 1014.7
20260904084003 68 0 0.0 0.0 0.00 0.61 0.00 93 1014.6
20260904083503 68 0 0.0 0.0 0.00 0.61 0.00 93 1014.7
20260904083003 68 0 0.0 0.0 0.00 0.61 0.00 93 1014.6
20260904082503 68 0 0.0 0.0 0.00 0.61 0.00 93 1014.5
20260904082024 68 0 0.0 0.0 0.00 0.61 0.00 93 1014.4
20260904081524 68 0 0.0 0.0 0.00 0.61 0.00 93 1014.3
20260904081003 68 0 0.0 0.0 0.00 0.61 0.00 93 1014.4
20260904080503 68 0 0.0 0.0 0.00 0.61 0.00 93 1014.4
20260904080003 68 0 0.0 0.0 0.00 0.61 0.00 93 1014.3
20260904075503 68 0 0.0 0.0 0.00 0.61 0.00 93 1014.4
20260904075003 68 0 0.0 0.0 0.00 0.61 0.00 93 1014.1
20260904074503 68 0 0.0 0.0 0.00 0.61 0.00 93 1014.0
20260904074003 68 0 0.0 0.0 0.00 0.61 0.00 93 1013.9
20260904073503 68 0 0.0 0.0 0.00 0.61 0.00 93 1014.0
20260904073003 68 0 0.0 0.0 0.00 0.61 0.00 93 1013.9
20260904072503 67 0 0.0 0.0 0.00 0.61 0.00 93 1014.0
20260904072003 68 0 0.0 0.0 0.00 0.61 0.00 93 1013.9
20260904071524 67 0 0.0 0.0 0.00 0.61 0.00 93 1013.9
20260904071003 68 0 0.0 0.0 0.00 0.61 0.00 93 1014.0
20260904070503 68 0 0.0 0.0 0.00 0.61 0.00 93 1014.0
20260904070003 68 0 0.0 0.0 0.00 0.61 0.00 93 1013.9
20260904065524 68 0 0.0 0.0 0.00 0.61 0.00 93 1014.1
20260904065003 67 0 0.0 0.0 0.00 0.61 0.00 93 1014.1
20260904064503 67 0 0.0 0.0 0.00 0.61 0.00 93 1014.1
20260904064024 67 0 0.0 0.0 0.00 0.61 0.00 93 1014.1
20260904063524 67 0 0.0 0.0 0.00 0.61 0.00 93 1013.9
20260904063003 67 0 0.0 0.0 0.00 0.61 0.00 93 1013.9
20260904062503 67 0 0.0 0.0 0.00 0.61 0.00 92 1013.7
20260904062024 67 0 0.0 0.0 0.00 0.61 0.00 92 1013.8
20260904061503 68 294 0.0 1.0 0.00 0.61 0.00 92 1013.7
20260904061003 68 294 0.0 1.0 0.00 0.61 0.00 92 1013.7
20260904060524 68 294 0.0 2.0 0.00 0.61 0.00 92 1013.7
20260904060003 68 294 0.0 2.0 0.00 0.61 0.00 92 1013.7
20260904055524 68 0 0.0 0.0 0.00 0.61 0.00 93 1013.8
20260904055003 69 0 0.0 0.0 0.00 0.61 0.00 92 1013.8
20260904054503 69 0 0.0 0.0 0.00 0.61 0.00 93 1013.9
20260904054003 69 0 0.0 0.0 0.00 0.61 0.00 93 1013.9
20260904053503 69 0 0.0 0.0 0.00 0.61 0.00 93 1014.0
20260904053003 69 0 0.0 0.0 0.00 0.61 0.00 93 1013.9
20260904052503 69 0 0.0 0.0 0.00 0.61 0.00 93 1013.9
20260904052003 69 0 0.0 0.0 0.00 0.61 0.00 93 1013.9
20260904051503 69 0 0.0 0.0 0.00 0.61 0.00 93 1014.1
20260904051003 69 0 0.0 0.0 0.00 0.61 0.00 93 1014.2
20260904050503 69 0 0.0 0.0 0.00 0.61 0.00 92 1014.3
20260904050003 69 0 0.0 0.0 0.00 0.61 0.00 92 1014.3
20260904045503 69 0 0.0 0.0 0.00 0.61 0.00 92 1014.2
20260904045003 69 0 0.0 0.0 0.00 0.61 0.00 92 1014.3
20260904044503 69 0 0.0 0.0 0.00 0.61 0.00 92 1014.1
20260904044024 69 0 0.0 0.0 0.00 0.61 0.00 92 1013.9
20260904043503 69 0 0.0 0.0 0.00 0.61 0.00 92 1014.2
20260904043003 69 0 0.0 0.0 0.00 0.61 0.00 92 1014.1
20260904042503 70 0 0.0 0.0 0.00 0.61 0.00 92 1014.1
20260904042003 70 0 0.0 0.0 0.00 0.61 0.00 92 1014.1
20260904041503 70 0 0.0 0.0 0.00 0.61 0.00 92 1014.2
20260904041003 70 0 0.0 0.0 0.00 0.61 0.00 92 1014.2
20260904040503 70 0 0.0 0.0 0.00 0.61 0.00 92 1014.2
20260904040003 70 0 0.0 0.0 0.00 0.61 0.00 92 1014.2
20260904035503 70 0 0.0 0.0 0.00 0.61 0.61 92 1014.1
20260904035003 70 0 0.0 0.0 0.00 0.61 0.61 92 1014.1
20260904034503 70 0 0.0 0.0 0.00 0.61 0.61 92 1014.1
20260904034003 70 0 0.0 0.0 0.00 0.61 0.61 92 1014.2
20260904033503 70 0 0.0 0.0 0.00 0.61 0.61 92 1014.1
20260904033003 70 0 0.0 0.0 0.00 0.61 0.61 92 1014.0
20260904032503 70 0 0.0 0.0 0.00 0.61 0.61 92 1013.9
20260904032003 70 0 0.0 0.0 0.00 0.61 0.61 92 1014.0
20260904031503 70 0 0.0 0.0 0.00 0.61 0.61 92 1013.9
20260904031024 70 0 0.0 0.0 0.00 0.61 0.61 92 1013.8
20260904030503 71 0 0.0 0.0 0.00 0.61 0.61 92 1014.0
20260904030003 71 0 0.0 0.0 0.00 0.62 0.61 92 1014.0
20260904025503 71 0 0.0 0.0 0.00 0.62 0.61 92 1014.0
20260904025003 71 0 0.0 0.0 0.00 0.62 0.61 92 1014.0
20260904024503 71 0 0.0 0.0 0.00 0.62 0.61 92 1014.0
20260904024003 71 0 0.0 0.0 0.00 0.62 0.61 92 1013.9
20260904023503 71 0 0.0 0.0 0.00 0.62 0.61 92 1013.9
20260904023003 71 0 0.0 0.0 0.00 0.62 0.61 92 1013.9
20260904022503 71 294 0.0 1.0 0.00 0.62 0.61 92 1013.9
20260904022024 71 294 0.0 1.0 0.02 0.62 0.61 92 1013.9
20260904021503 71 0 0.0 0.0 0.18 0.62 0.61 92 1013.9
20260904021003 71 294 0.0 2.0 0.22 0.62 0.61 92 1013.9
20260904020503 71 294 0.0 2.0 0.29 0.62 0.61 92 1013.8
20260904020003 71 294 0.0 3.0 0.30 0.63 0.61 92 1013.7
20260904015503 71 294 1.0 3.0 0.30 0.63 0.61 91 1013.7
20260904015003 71 294 0.0 2.0 0.31 0.63 0.61 92 1013.8
20260904014503 71 294 0.0 2.0 0.32 0.63 0.61 91 1013.7
20260904014003 71 296 1.0 5.0 0.33 0.63 0.61 91 1013.6
20260904013524 71 298 1.0 5.0 0.33 0.65 0.61 91 1013.5
20260904013003 71 300 1.0 4.0 0.33 0.77 0.61 91 1013.5
20260904012503 71 301 1.0 3.0 0.33 0.81 0.61 91 1013.4
20260904012003 71 303 2.0 4.0 0.36 0.79 0.59 91 1013.4
20260904011503 71 305 2.0 4.0 0.22 0.63 0.43 91 1013.4
20260904011003 71 306 1.0 4.0 0.31 0.59 0.39 91 1013.3
20260904010503 71 307 0.0 3.0 0.29 0.52 0.32 91 1013.3
20260904010003 72 308 0.0 3.0 0.28 0.51 0.31 91 1013.1
20260904005503 72 308 1.0 5.0 0.28 0.51 0.31 90 1013.2
20260904005003 72 309 2.0 5.0 0.27 0.50 0.30 90 1012.9
20260904004503 72 311 2.0 5.0 0.26 0.49 0.29 90 1012.9
20260904004003 72 312 2.0 4.0 0.25 0.49 0.28 90 1012.9
20260904003524 72 311 2.0 4.0 0.25 0.49 0.28 90 1012.7
20260904003003 73 307 2.0 5.0 0.25 0.50 0.28 89 1012.7
20260904002503 73 299 2.0 5.0 0.26 0.51 0.28 89 1012.5
20260904002003 74 305 2.0 9.0 0.23 0.47 0.23 88 1012.7
20260904001503 74 323 1.0 9.0 0.21 0.46 0.21 88 1012.7
20260904001003 74 214 0.0 4.0 0.08 0.33 0.08 88 1013.0
20260904000503 74 247 2.0 8.0 0.03 0.29 0.03 87 1012.7
20260904000003 74 253 4.0 9.0 0.03 0.30 0.03 87 1012.8
20260903235503 75 256 2.0 9.0 0.03 0.31 0.03 87 1012.9
20260903235003 75 249 3.0 10.0 0.03 0.32 0.03 87 1012.8
20260903234503 75 249 3.0 10.0 0.03 0.33 0.03 87 1012.9
20260903234003 75 261 3.0 7.0 0.03 0.33 0.03 87 1012.8
20260903233503 75 266 2.0 6.0 0.03 0.33 0.03 86 1013.0
20260903233024 75 264 2.0 8.0 0.03 0.34 0.03 86 1013.1
20260903232503 76 243 3.0 8.0 0.02 0.39 0.02 85 1013.1
20260903232003 76 221 2.0 7.0 0.00 0.50 0.00 84 1013.0
20260903231503 76 213 2.0 5.0 0.00 0.56 0.00 84 1013.1
20260903231003 76 206 2.0 6.0 0.00 0.59 0.00 84 1013.0
20260903230503 76 204 2.0 8.0 0.00 0.59 0.00 84 1012.8
20260903230024 76 211 3.0 10.0 0.00 0.59 0.00 83 1013.1
20260903225503 76 217 3.0 10.0 0.00 0.59 0.00 83 1013.1
20260903225024 76 214 3.0 9.0 0.00 0.59 0.00 83 1013.1
20260903224524 76 213 3.0 9.0 0.00 0.59 0.00 83 1013.3
20260903224003 76 220 2.0 6.0 0.00 0.59 0.00 82 1013.2
20260903223503 76 231 2.0 7.0 0.00 0.59 0.00 82 1013.0
20260903223003 76 236 2.0 7.0 0.00 0.59 0.00 82 1012.9
20260903222503 76 231 3.0 9.0 0.00 0.59 0.00 82 1013.0
20260903222003 76 231 3.0 9.0 0.00 0.59 0.00 82 1013.0
20260903221503 77 235 3.0 8.0 0.00 0.59 0.00 82 1012.8
20260903221024 77 227 3.0 8.0 0.00 0.59 0.00 82 1012.8
20260903220503 77 218 2.0 9.0 0.00 0.59 0.00 82 1012.6
20260903220003 77 220 3.0 9.0 0.00 0.59 0.00 82 1012.6
20260903215524 77 221 4.0 9.0 0.00 0.59 0.00 81 1012.7
20260903215003 77 218 3.0 8.0 0.00 0.59 0.00 81 1012.6
20260903214503 77 211 3.0 8.0 0.00 0.59 0.00 81 1012.4
20260903214003 77 199 3.0 7.0 0.00 0.59 0.00 80 1012.3